Погода в Сосново

Россия / Санкт-Петербург и Ленинградская область     59°12′25″N   29°37′52″E
темп.,
°C
ветер,
м/с
пор.,
м/с
влажн.,
%
обл.,
%
осадки,
мм/ч
давл.,
гПа
погр.,
м
28 сентября, вт
вт2800:00+5всв25960 0.0 1032104
03:00+5всв22970 0.0 103231
06:00+4всв23970 0.0 103357
09:00+7всв25882 0.0 1033205
12:00+12в35625 0.0 1033829
15:00+13вюв345662 0.0 10331296
18:00+10вюв3567100 0.0 1033310
21:00+9юв2677100 0.0 1035310
29 сентября, ср
ср2900:00+9юв2470100 0.0 1035153
03:00+9ююв2467100 0.0 1036100
06:00+7юв248082 0.0 1036124
09:00+7ююв25769 0.0 1036223
12:00+11ююв23565 0.0 1036835
15:00+13ююв33505 0.0 10351194
18:00+10юв23655 0.0 103564
21:00+6ююв23825 0.0 103550
30 сентября, чт
чт3000:00+5ююв238922 0.0 103545
03:00+4ююв239212 0.0 103543
06:00+3юв23955 0.0 103556
09:00+6ююв257956 0.0 1035187
12:00+11ююв365311 0.0 1034723
15:00+12ююв46455 0.0 10331025
18:00+9ююв37619 0.0 1031207
21:00+5ююв298318 0.0 1032189
1 октября, пт
пт100:00+4ююв29845 0.0 1032199
03:00+4ююв29885 0.0 1031174
06:00+3ююв310915 0.0 1030209
09:00+6ююв31078100 0.0 1029294
12:00+8ю3974100 0.0 1030393
15:00+8ю3879100 0.0 1029448
18:00+8ю3885100 0.0 1028385
21:00+7ю388667 0.0 1029312
2 октября, сб
сб200:00+5ю289817 0.0 1028173
03:00+4ю279820 0.0 1027161
06:00+4ююв399818 0.0 1026195
09:00+7ю311863 0.0 1025337
12:00+13ю510595 0.0 1024725
15:00+15ю510506 0.0 10231082
18:00+12ю5125627 0.0 1022772
21:00+9ю5146656 0.0 1022649